Tracking 19212 objects as of 17-Jul-2018
HD Live streaming from Space Station
objects crossing your sky now

FENGYUN 1C DEB

Track FENGYUN 1C DEB now!
10-day predictions


NORAD ID: 29930
Int'l Code: 1999-025JC
Perigee: 716.1 km
Apogee: 958.9 km
Inclination: 99.0 °
Period: 101.5 minutes
Semi major axis: 7208 km
RCS: 0.031 m2 (small)
Launch date: May 10, 1999
Source: People's Republic of China (PRC)
Launch site: Taiyaun Space Center, China (TSC)

Note: This is SATELLITE DEBRIS
aabbcc
Your satellite tracking list
Your tracking list is empty




NASA's NSSDC Master Catalog

Two Line Element Set (TLE):
1 29930U 99025JC  18197.88326152  .00000074  00000-0  50486-4 0  9997
2 29930  99.0250 324.0253 0168417 186.5641 297.4388 14.18526992595228
Source of the keplerian elements: AFSPC